| time (UTC) | temp F | wind direction | speed MPH | gust MPH | rain 1hr in | rain 24hr in | rain mn in | humidity % | barometer mb |
| 20260508192037 | 47 | 0.0 | 0.0 | 0.00 | 0.00 | 0.00 | 44 | 1025.1 | |
| 20260508191545 | 47 | 0.0 | 0.0 | 0.00 | 0.00 | 0.00 | 46 | 1025.1 | |
| 20260508191037 | 48 | 0.0 | 0.0 | 0.00 | 0.00 | 0.00 | 44 | 1025.1 | |
| 20260508190536 | 48 | 0.0 | 0.0 | 0.00 | 0.00 | 0.00 | 43 | 1024.9 | |
| 20260508190052 | 49 | 0.0 | 0.0 | 0.00 | 0.00 | 0.00 | 42 | 1024.9 | |
| 20260508185533 | 49 | 0.0 | 0.0 | 0.00 | 0.00 | 0.00 | 41 | 1024.9 | |
| 20260508185034 | 50 | 0.0 | 0.0 | 0.00 | 0.00 | 0.00 | 40 | 1024.9 | |
| 20260508184557 | 50 | 0.0 | 0.0 | 0.00 | 0.00 | 0.00 | 39 | 1024.8 | |
| 20260508184032 | 51 | 0.0 | 0.0 | 0.00 | 0.00 | 0.00 | 39 | 1024.7 | |
| 20260508183536 | 51 | 0.0 | 0.0 | 0.00 | 0.00 | 0.00 | 39 | 1024.6 | |
| 20260508183042 | 51 | 0.0 | 0.0 | 0.00 | 0.00 | 0.00 | 39 | 1024.7 | |
| 20260508182537 | 52 | 0.0 | 0.0 | 0.00 | 0.00 | 0.00 | 38 | 1024.6 | |
| 20260508182036 | 52 | 0.0 | 0.0 | 0.00 | 0.00 | 0.00 | 37 | 1024.6 | |
| 20260508181601 | 52 | 0.0 | 0.0 | 0.00 | 0.00 | 0.00 | 36 | 1024.6 | |
| 20260508181033 | 52 | 0.0 | 0.0 | 0.00 | 0.00 | 0.00 | 37 | 1024.6 | |
| 20260508180535 | 53 | 0.0 | 0.0 | 0.00 | 0.00 | 0.00 | 36 | 1024.6 | |
| 20260508180041 | 53 | 0.0 | 0.0 | 0.00 | 0.00 | 0.00 | 36 | 1024.6 | |
| 20260508175536 | 53 | 0.0 | 0.0 | 0.00 | 0.00 | 0.00 | 37 | 1024.7 | |
| 20260508175036 | 53 | 0.0 | 0.0 | 0.00 | 0.00 | 0.00 | 38 | 1024.5 | |
| 20260508174547 | 53 | 0.0 | 0.0 | 0.00 | 0.00 | 0.00 | 39 | 1024.6 | |
| 20260508174035 | 53 | 0.0 | 0.0 | 0.00 | 0.00 | 0.00 | 37 | 1024.5 | |
| 20260508173540 | 53 | 0.0 | 0.0 | 0.00 | 0.00 | 0.00 | 36 | 1024.5 | |
| 20260508173049 | 53 | 0.0 | 0.0 | 0.00 | 0.00 | 0.00 | 35 | 1024.5 | |
| 20260508172535 | 53 | 0.0 | 0.0 | 0.00 | 0.00 | 0.00 | 36 | 1024.5 | |
| 20260508172036 | 54 | 0.0 | 0.0 | 0.00 | 0.00 | 0.00 | 36 | 1024.5 | |
| 20260508171543 | 54 | 0.0 | 0.0 | 0.00 | 0.00 | 0.00 | 35 | 1024.5 | |
| 20260508171034 | 54 | 0.0 | 0.0 | 0.00 | 0.00 | 0.00 | 35 | 1024.4 | |
| 20260508170536 | 54 | 0.0 | 0.0 | 0.00 | 0.00 | 0.00 | 35 | 1024.4 | |
| 20260508170051 | 54 | 0.0 | 0.0 | 0.00 | 0.00 | 0.00 | 35 | 1024.4 | |
| 20260508165535 | 54 | 0.0 | 0.0 | 0.00 | 0.00 | 0.00 | 35 | 1024.4 | |
| 20260508165033 | 55 | 0.0 | 0.0 | 0.00 | 0.00 | 0.00 | 35 | 1024.2 | |
| 20260508164559 | 55 | 0.0 | 0.0 | 0.00 | 0.00 | 0.00 | 35 | 1024.4 | |
| 20260508164035 | 55 | 0.0 | 0.0 | 0.00 | 0.00 | 0.00 | 35 | 1024.4 | |
| 20260508163535 | 55 | 0.0 | 0.0 | 0.00 | 0.00 | 0.00 | 34 | 1024.3 | |
| 20260508163046 | 55 | 0.0 | 0.0 | 0.00 | 0.00 | 0.00 | 34 | 1024.2 | |
| 20260508162535 | 55 | 0.0 | 0.0 | 0.00 | 0.00 | 0.00 | 35 | 1024.2 | |
| 20260508162035 | 55 | 0.0 | 0.0 | 0.00 | 0.00 | 0.00 | 34 | 1024.0 | |
| 20260508161549 | 55 | 0.0 | 0.0 | 0.00 | 0.00 | 0.00 | 33 | 1024.3 | |
| 20260508161036 | 56 | 0.0 | 0.0 | 0.00 | 0.00 | 0.00 | 34 | 1024.3 | |
| 20260508160535 | 56 | 0.0 | 0.0 | 0.00 | 0.00 | 0.00 | 34 | 1024.2 | |
| 20260508160043 | 56 | 0.0 | 0.0 | 0.00 | 0.00 | 0.00 | 32 | 1024.4 | |
| 20260508155534 | 56 | 0.0 | 0.0 | 0.00 | 0.00 | 0.00 | 32 | 1024.2 | |
| 20260508155036 | 57 | 0.0 | 0.0 | 0.00 | 0.00 | 0.00 | 31 | 1024.2 | |
| 20260508154544 | 57 | 0.0 | 0.0 | 0.00 | 0.00 | 0.00 | 32 | 1024.3 | |
| 20260508154034 | 57 | 0.0 | 0.0 | 0.00 | 0.00 | 0.00 | 31 | 1024.1 | |
| 20260508153536 | 57 | 0.0 | 0.0 | 0.00 | 0.00 | 0.00 | 33 | 1024.2 | |
| 20260508153050 | 58 | 0.0 | 0.0 | 0.00 | 0.00 | 0.00 | 33 | 1024.1 | |
| 20260508152535 | 57 | 0.0 | 0.0 | 0.00 | 0.00 | 0.00 | 31 | 1024.1 | |
| 20260508152033 | 57 | 0.0 | 0.0 | 0.00 | 0.00 | 0.00 | 29 | 1024.1 | |
| 20260508151559 | 58 | 0.0 | 0.0 | 0.00 | 0.00 | 0.00 | 30 | 1024.2 | |
| 20260508151035 | 58 | 0.0 | 0.0 | 0.00 | 0.00 | 0.00 | 28 | 1024.2 | |
| 20260508150535 | 58 | 0.0 | 0.0 | 0.00 | 0.00 | 0.00 | 30 | 1024.1 | |
| 20260508150059 | 58 | 0.0 | 0.0 | 0.00 | 0.00 | 0.00 | 28 | 1024.1 | |
| 20260508145536 | 58 | 0.0 | 0.0 | 0.00 | 0.00 | 0.00 | 27 | 1024.4 | |
| 20260508145036 | 58 | 0.0 | 0.0 | 0.00 | 0.00 | 0.00 | 24 | 1024.1 | |
| 20260508144609 | 58 | 0.0 | 0.0 | 0.00 | 0.00 | 0.00 | 27 | 1024.1 | |
| 20260508144036 | 58 | 0.0 | 0.0 | 0.00 | 0.00 | 0.00 | 25 | 1024.2 | |
| 20260508143538 | 58 | 0.0 | 0.0 | 0.00 | 0.00 | 0.00 | 26 | 1024.1 | |
| 20260508143041 | 58 | 0.0 | 0.0 | 0.00 | 0.00 | 0.00 | 26 | 1024.4 | |
| 20260508142534 | 58 | 0.0 | 0.0 | 0.00 | 0.00 | 0.00 | 28 | 1024.2 | |
| 20260508142036 | 58 | 0.0 | 0.0 | 0.00 | 0.00 | 0.00 | 25 | 1024.3 | |
| 20260508141550 | 58 | 0.0 | 0.0 | 0.00 | 0.00 | 0.00 | 25 | 1024.3 | |
| 20260508141035 | 58 | 0.0 | 0.0 | 0.00 | 0.00 | 0.00 | 24 | 1024.3 | |
| 20260508140533 | 58 | 0.0 | 0.0 | 0.00 | 0.00 | 0.00 | 30 | 1024.4 | |
| 20260508140049 | 58 | 0.0 | 0.0 | 0.00 | 0.00 | 0.00 | 25 | 1024.3 | |
| 20260508135535 | 58 | 0.0 | 0.0 | 0.00 | 0.00 | 0.00 | 24 | 1024.4 | |
| 20260508135037 | 58 | 0.0 | 0.0 | 0.00 | 0.00 | 0.00 | 27 | 1024.3 | |
| 20260508134542 | 58 | 0.0 | 0.0 | 0.00 | 0.00 | 0.00 | 29 | 1024.4 | |
| 20260508134035 | 58 | 0.0 | 0.0 | 0.00 | 0.00 | 0.00 | 26 | 1024.3 | |
| 20260508133535 | 58 | 0.0 | 0.0 | 0.00 | 0.00 | 0.00 | 26 | 1024.5 | |
| 20260508133110 | 58 | 0.0 | 0.0 | 0.00 | 0.00 | 0.00 | 28 | 1024.5 | |
| 20260508132535 | 58 | 0.0 | 0.0 | 0.00 | 0.00 | 0.00 | 28 | 1024.6 | |
| 20260508132037 | 58 | 0.0 | 0.0 | 0.00 | 0.00 | 0.00 | 27 | 1024.5 | |
| 20260508131548 | 58 | 0.0 | 0.0 | 0.00 | 0.00 | 0.00 | 25 | 1024.6 | |
| 20260508131036 | 58 | 0.0 | 0.0 | 0.00 | 0.00 | 0.00 | 29 | 1024.6 | |
| 20260508130533 | 58 | 0.0 | 0.0 | 0.00 | 0.00 | 0.00 | 26 | 1024.5 | |
| 20260508130042 | 57 | 0.0 | 0.0 | 0.00 | 0.00 | 0.00 | 28 | 1024.6 | |
| 20260508125535 | 58 | 0.0 | 0.0 | 0.00 | 0.00 | 0.00 | 28 | 1024.7 | |
| 20260508125036 | 58 | 0.0 | 0.0 | 0.00 | 0.00 | 0.00 | 28 | 1024.7 | |
| 20260508124539 | 58 | 0.0 | 0.0 | 0.00 | 0.00 | 0.00 | 29 | 1024.7 | |
| 20260508124032 | 58 | 0.0 | 0.0 | 0.00 | 0.00 | 0.00 | 27 | 1024.6 | |
| 20260508123533 | 58 | 0.0 | 0.0 | 0.00 | 0.00 | 0.00 | 28 | 1024.7 | |
| 20260508123056 | 58 | 0.0 | 0.0 | 0.00 | 0.00 | 0.00 | 28 | 1024.8 | |
| 20260508122536 | 58 | 0.0 | 0.0 | 0.00 | 0.00 | 0.00 | 25 | 1024.7 | |
| 20260508122036 | 58 | 0.0 | 0.0 | 0.00 | 0.00 | 0.00 | 26 | 1024.7 | |
| 20260508121540 | 58 | 0.0 | 0.0 | 0.00 | 0.00 | 0.00 | 26 | 1024.9 | |
| 20260508121035 | 58 | 0.0 | 0.0 | 0.00 | 0.00 | 0.00 | 29 | 1024.8 | |
| 20260508120535 | 58 | 0.0 | 0.0 | 0.00 | 0.00 | 0.00 | 29 | 1024.7 | |
| 20260508120045 | 58 | 0.0 | 0.0 | 0.00 | 0.00 | 0.00 | 29 | 1024.8 | |
| 20260508115534 | 58 | 0.0 | 0.0 | 0.00 | 0.00 | 0.00 | 32 | 1024.7 | |
| 20260508115035 | 58 | 0.0 | 0.0 | 0.00 | 0.00 | 0.00 | 34 | 1024.6 | |
| 20260508114545 | 58 | 0.0 | 0.0 | 0.00 | 0.00 | 0.00 | 34 | 1024.7 | |
| 20260508114036 | 58 | 0.0 | 0.0 | 0.00 | 0.00 | 0.00 | 34 | 1024.7 | |
| 20260508113536 | 58 | 0.0 | 0.0 | 0.00 | 0.00 | 0.00 | 36 | 1024.6 | |
| 20260508113059 | 58 | 0.0 | 0.0 | 0.00 | 0.00 | 0.00 | 36 | 1024.7 | |
| 20260508112535 | 58 | 0.0 | 0.0 | 0.00 | 0.00 | 0.00 | 35 | 1024.7 | |
| 20260508112035 | 58 | 0.0 | 0.0 | 0.00 | 0.00 | 0.00 | 34 | 1024.7 | |
| 20260508111545 | 58 | 0.0 | 0.0 | 0.00 | 0.00 | 0.00 | 38 | 1024.6 | |
| 20260508111034 | 58 | 0.0 | 0.0 | 0.00 | 0.00 | 0.00 | 40 | 1024.6 | |
| 20260508110535 | 58 | 0.0 | 0.0 | 0.00 | 0.00 | 0.00 | 38 | 1024.5 | |
| 20260508110050 | 58 | 0.0 | 0.0 | 0.00 | 0.00 | 0.00 | 40 | 1024.6 | |
| 20260508105536 | 58 | 0.0 | 0.0 | 0.00 | 0.00 | 0.00 | 39 | 1024.6 | |
| 20260508105034 | 58 | 0.0 | 0.0 | 0.00 | 0.00 | 0.00 | 35 | 1024.6 | |
| 20260508104543 | 58 | 0.0 | 0.0 | 0.00 | 0.00 | 0.00 | 34 | 1024.4 | |
| 20260508104035 | 58 | 0.0 | 0.0 | 0.00 | 0.00 | 0.00 | 34 | 1024.4 | |
| 20260508103536 | 59 | 0.0 | 0.0 | 0.00 | 0.00 | 0.00 | 34 | 1024.5 | |
| 20260508103052 | 59 | 0.0 | 0.0 | 0.00 | 0.00 | 0.00 | 35 | 1024.4 | |
| 20260508102534 | 59 | 0.0 | 0.0 | 0.00 | 0.00 | 0.00 | 35 | 1024.4 | |
| 20260508102036 | 58 | 0.0 | 0.0 | 0.00 | 0.00 | 0.00 | 35 | 1024.3 | |
| 20260508101544 | 58 | 0.0 | 0.0 | 0.00 | 0.00 | 0.00 | 35 | 1024.5 | |
| 20260508101036 | 58 | 0.0 | 0.0 | 0.00 | 0.00 | 0.00 | 38 | 1024.2 | |
| 20260508100540 | 58 | 0.0 | 0.0 | 0.00 | 0.00 | 0.00 | 37 | 1024.3 | |
| 20260508100046 | 59 | 0.0 | 0.0 | 0.00 | 0.00 | 0.00 | 38 | 1024.3 | |
| 20260508095536 | 59 | 0.0 | 0.0 | 0.00 | 0.00 | 0.00 | 41 | 1024.4 | |
| 20260508095036 | 59 | 0.0 | 0.0 | 0.00 | 0.00 | 0.00 | 41 | 1024.4 | |
| 20260508094546 | 58 | 0.0 | 0.0 | 0.00 | 0.00 | 0.00 | 40 | 1024.6 | |
| 20260508094035 | 58 | 0.0 | 0.0 | 0.00 | 0.00 | 0.00 | 40 | 1024.4 | |
| 20260508093535 | 57 | 0.0 | 0.0 | 0.00 | 0.00 | 0.00 | 41 | 1024.5 | |
| 20260508093052 | 58 | 0.0 | 0.0 | 0.00 | 0.00 | 0.00 | 38 | 1024.5 | |
| 20260508092536 | 57 | 0.0 | 0.0 | 0.00 | 0.00 | 0.00 | 41 | 1024.4 | |
| 20260508092037 | 57 | 0.0 | 0.0 | 0.00 | 0.00 | 0.00 | 38 | 1024.4 | |
| 20260508091552 | 57 | 0.0 | 0.0 | 0.00 | 0.00 | 0.00 | 37 | 1024.4 | |
| 20260508091035 | 57 | 0.0 | 0.0 | 0.00 | 0.00 | 0.00 | 37 | 1024.3 | |
| 20260508090538 | 57 | 0.0 | 0.0 | 0.00 | 0.00 | 0.00 | 39 | 1024.4 | |
| 20260508090059 | 57 | 0.0 | 0.0 | 0.00 | 0.00 | 0.00 | 39 | 1024.4 | |
| 20260508085533 | 57 | 0.0 | 0.0 | 0.00 | 0.00 | 0.00 | 38 | 1024.4 | |
| 20260508085035 | 56 | 0.0 | 0.0 | 0.00 | 0.00 | 0.00 | 37 | 1024.4 | |
| 20260508084547 | 56 | 0.0 | 0.0 | 0.00 | 0.00 | 0.00 | 35 | 1024.5 | |
| 20260508084036 | 56 | 0.0 | 0.0 | 0.00 | 0.00 | 0.00 | 37 | 1024.5 | |
| 20260508083536 | 56 | 0.0 | 0.0 | 0.00 | 0.00 | 0.00 | 35 | 1024.4 | |
| 20260508083041 | 55 | 0.0 | 0.0 | 0.00 | 0.00 | 0.00 | 34 | 1024.3 | |
| 20260508082535 | 55 | 0.0 | 0.0 | 0.00 | 0.00 | 0.00 | 38 | 1024.4 | |
| 20260508082036 | 55 | 0.0 | 0.0 | 0.00 | 0.00 | 0.00 | 36 | 1024.2 | |
| 20260508081539 | 54 | 0.0 | 0.0 | 0.00 | 0.00 | 0.00 | 35 | 1024.3 | |
| 20260508081039 | 54 | 0.0 | 0.0 | 0.00 | 0.00 | 0.00 | 35 | 1024.4 | |
| 20260508080535 | 54 | 0.0 | 0.0 | 0.00 | 0.00 | 0.00 | 33 | 1024.4 | |
| 20260508080041 | 54 | 0.0 | 0.0 | 0.00 | 0.00 | 0.00 | 34 | 1024.4 | |
| 20260508075535 | 55 | 0.0 | 0.0 | 0.00 | 0.00 | 0.00 | 33 | 1024.5 | |
| 20260508075035 | 54 | 0.0 | 0.0 | 0.00 | 0.00 | 0.00 | 34 | 1024.2 | |
| 20260508074546 | 54 | 0.0 | 0.0 | 0.00 | 0.00 | 0.00 | 33 | 1024.2 | |
| 20260508074036 | 54 | 0.0 | 0.0 | 0.00 | 0.00 | 0.00 | 35 | 1024.2 | |
| 20260508073538 | 53 | 0.0 | 0.0 | 0.00 | 0.00 | 0.00 | 38 | 1024.2 | |
| 20260508073043 | 53 | 0.0 | 0.0 | 0.00 | 0.00 | 0.00 | 39 | 1024.1 | |
| 20260508072535 | 53 | 0.0 | 0.0 | 0.00 | 0.00 | 0.00 | 48 | 1024.2 | |
| 20260508072040 | 52 | 0.0 | 0.0 | 0.00 | 0.00 | 0.00 | 49 | 1024.0 | |
| 20260508071552 | 51 | 0.0 | 0.0 | 0.00 | 0.00 | 0.00 | 50 | 1023.9 | |
| 20260508071036 | 51 | 0.0 | 0.0 | 0.00 | 0.00 | 0.00 | 51 | 1023.9 | |
| 20260508070533 | 52 | 0.0 | 0.0 | 0.00 | 0.00 | 0.00 | 52 | 1024.0 | |
| 20260508070045 | 51 | 0.0 | 0.0 | 0.00 | 0.00 | 0.00 | 57 | 1023.9 | |
| 20260508065536 | 51 | 0.0 | 0.0 | 0.00 | 0.00 | 0.00 | 58 | 1023.8 | |
| 20260508065035 | 51 | 0.0 | 0.0 | 0.00 | 0.00 | 0.00 | 58 | 1023.7 | |
| 20260508064549 | 51 | 0.0 | 0.0 | 0.00 | 0.00 | 0.00 | 60 | 1023.8 | |
| 20260508064035 | 51 | 0.0 | 0.0 | 0.00 | 0.00 | 0.00 | 63 | 1023.7 | |
| 20260508063534 | 51 | 0.0 | 0.0 | 0.00 | 0.00 | 0.00 | 65 | 1023.6 | |
| 20260508063049 | 50 | 0.0 | 0.0 | 0.00 | 0.00 | 0.00 | 67 | 1023.6 | |
| 20260508062533 | 49 | 0.0 | 0.0 | 0.00 | 0.00 | 0.00 | 68 | 1023.5 | |
| 20260508062035 | 49 | 0.0 | 0.0 | 0.00 | 0.00 | 0.00 | 71 | 1023.4 | |
| 20260508061551 | 49 | 0.0 | 0.0 | 0.00 | 0.00 | 0.00 | 72 | 1023.4 | |
| 20260508061036 | 49 | 0.0 | 0.0 | 0.00 | 0.00 | 0.00 | 73 | 1023.4 | |
| 20260508060533 | 50 | 0.0 | 0.0 | 0.00 | 0.00 | 0.00 | 74 | 1023.4 | |
| 20260508060050 | 49 | 0.0 | 0.0 | 0.00 | 0.00 | 0.00 | 76 | 1023.4 | |
| 20260508055537 | 48 | 0.0 | 0.0 | 0.00 | 0.00 | 0.00 | 78 | 1023.2 | |
| 20260508055035 | 48 | 0.0 | 0.0 | 0.00 | 0.00 | 0.00 | 79 | 1023.1 | |
| 20260508054539 | 48 | 0.0 | 0.0 | 0.00 | 0.00 | 0.00 | 85 | 1023.1 | |
| 20260508054035 | 47 | 0.0 | 0.0 | 0.00 | 0.00 | 0.00 | 88 | 1023.1 | |
| 20260508053537 | 46 | 0.0 | 0.0 | 0.00 | 0.00 | 0.00 | 92 | 1023.0 | |
| 20260508053113 | 45 | 0.0 | 0.0 | 0.00 | 0.00 | 0.00 | 94 | 1023.0 | |
| 20260508052532 | 44 | 0.0 | 0.0 | 0.00 | 0.00 | 0.00 | 95 | 1023.2 | |
| 20260508052036 | 43 | 0.0 | 0.0 | 0.00 | 0.00 | 0.00 | 95 | 1023.0 | |
| 20260508051549 | 42 | 0.0 | 0.0 | 0.00 | 0.00 | 0.00 | 95 | 1022.7 | |
| 20260508051037 | 41 | 0.0 | 0.0 | 0.00 | 0.00 | 0.00 | 96 | 1022.9 | |
| 20260508050535 | 40 | 0.0 | 0.0 | 0.00 | 0.00 | 0.00 | 96 | 1022.8 | |
| 20260508050043 | 40 | 0.0 | 0.0 | 0.00 | 0.00 | 0.00 | 95 | 1022.8 | |
| 20260508045534 | 39 | 0.0 | 0.0 | 0.00 | 0.00 | 0.00 | 95 | 1022.7 | |
| 20260508045035 | 39 | 0.0 | 0.0 | 0.00 | 0.00 | 0.00 | 95 | 1022.8 | |
| 20260508044547 | 39 | 0.0 | 0.0 | 0.00 | 0.00 | 0.00 | 95 | 1022.8 | |
| 20260508044035 | 39 | 0.0 | 0.0 | 0.00 | 0.00 | 0.00 | 95 | 1022.7 | |
| 20260508043536 | 39 | 0.0 | 0.0 | 0.00 | 0.00 | 0.00 | 96 | 1022.7 | |
| 20260508043048 | 38 | 0.0 | 0.0 | 0.00 | 0.00 | 0.00 | 95 | 1022.4 | |
| 20260508042535 | 38 | 0.0 | 0.0 | 0.00 | 0.00 | 0.00 | 95 | 1022.5 | |
| 20260508042035 | 38 | 0.0 | 0.0 | 0.00 | 0.00 | 0.00 | 96 | 1022.4 | |
| 20260508041611 | 37 | 0.0 | 0.0 | 0.00 | 0.00 | 0.00 | 96 | 1022.4 | |
| 20260508041035 | 37 | 0.0 | 0.0 | 0.00 | 0.00 | 0.00 | 96 | 1022.5 | |
| 20260508040537 | 37 | 0.0 | 0.0 | 0.00 | 0.00 | 0.00 | 96 | 1022.5 | |
| 20260508040104 | 35 | 0.0 | 0.0 | 0.00 | 0.00 | 0.00 | 96 | 1022.3 | |
| 20260508035536 | 35 | 0.0 | 0.0 | 0.00 | 0.00 | 0.00 | 95 | 1022.4 | |
| 20260508035037 | 35 | 0.0 | 0.0 | 0.00 | 0.00 | 0.00 | 95 | 1022.4 | |
| 20260508034543 | 34 | 0.0 | 0.0 | 0.00 | 0.00 | 0.00 | 95 | 1022.4 | |
| 20260508034039 | 34 | 0.0 | 0.0 | 0.00 | 0.00 | 0.00 | 95 | 1022.3 | |
| 20260508033533 | 33 | 0.0 | 0.0 | 0.00 | 0.00 | 0.00 | 95 | 1022.2 | |
| 20260508033039 | 33 | 0.0 | 0.0 | 0.00 | 0.00 | 0.00 | 94 | 1022.2 | |
| 20260508032534 | 33 | 0.0 | 0.0 | 0.00 | 0.00 | 0.00 | 94 | 1022.2 | |
| 20260508032035 | 33 | 0.0 | 0.0 | 0.00 | 0.00 | 0.00 | 94 | 1022.1 | |
| 20260508031542 | 33 | 0.0 | 0.0 | 0.00 | 0.00 | 0.00 | 94 | 1022.1 | |
| 20260508031033 | 33 | 0.0 | 0.0 | 0.00 | 0.00 | 0.00 | 95 | 1022.1 | |
| 20260508030533 | 33 | 0.0 | 0.0 | 0.00 | 0.00 | 0.00 | 95 | 1022.0 | |
| 20260508030047 | 33 | 0.0 | 0.0 | 0.00 | 0.00 | 0.00 | 94 | 1022.1 | |
| 20260508025534 | 33 | 0.0 | 0.0 | 0.00 | 0.00 | 0.00 | 94 | 1022.0 | |
| 20260508025033 | 33 | 0.0 | 0.0 | 0.00 | 0.00 | 0.00 | 94 | 1021.9 | |
| 20260508024549 | 33 | 0.0 | 0.0 | 0.00 | 0.00 | 0.00 | 94 | 1021.9 | |
| 20260508024035 | 33 | 0.0 | 0.0 | 0.00 | 0.00 | 0.00 | 94 | 1021.9 | |
| 20260508023533 | 33 | 0.0 | 0.0 | 0.00 | 0.00 | 0.00 | 94 | 1021.8 | |
| 20260508023042 | 33 | 0.0 | 0.0 | 0.00 | 0.00 | 0.00 | 94 | 1021.9 | |
| 20260508022534 | 34 | 0.0 | 0.0 | 0.00 | 0.00 | 0.00 | 93 | 1021.8 | |
| 20260508022033 | 34 | 0.0 | 0.0 | 0.00 | 0.00 | 0.00 | 94 | 1021.9 | |
| 20260508021547 | 35 | 0.0 | 0.0 | 0.00 | 0.00 | 0.00 | 94 | 1021.8 | |
| 20260508021033 | 35 | 0.0 | 0.0 | 0.00 | 0.00 | 0.00 | 94 | 1021.8 | |
| 20260508020532 | 35 | 0.0 | 0.0 | 0.00 | 0.00 | 0.00 | 94 | 1021.8 | |
| 20260508020044 | 34 | 0.0 | 0.0 | 0.00 | 0.00 | 0.00 | 94 | 1021.7 | |
| 20260508015534 | 34 | 0.0 | 0.0 | 0.00 | 0.00 | 0.00 | 94 | 1021.8 | |
| 20260508015033 | 34 | 0.0 | 0.0 | 0.00 | 0.00 | 0.00 | 94 | 1021.9 | |
| 20260508014541 | 34 | 0.0 | 0.0 | 0.00 | 0.00 | 0.00 | 93 | 1021.8 | |
| 20260508014037 | 34 | 0.0 | 0.0 | 0.00 | 0.00 | 0.00 | 93 | 1021.7 | |
| 20260508013536 | 34 | 0.0 | 0.0 | 0.00 | 0.00 | 0.00 | 93 | 1021.6 | |
| 20260508013042 | 34 | 0.0 | 0.0 | 0.00 | 0.00 | 0.00 | 93 | 1021.7 | |
| 20260508012533 | 34 | 0.0 | 0.0 | 0.00 | 0.00 | 0.00 | 93 | 1021.8 | |
| 20260508012035 | 34 | 0.0 | 0.0 | 0.00 | 0.00 | 0.00 | 93 | 1021.7 | |
| 20260508011551 | 34 | 0.0 | 0.0 | 0.00 | 0.00 | 0.00 | 93 | 1021.8 | |
| 20260508011032 | 35 | 0.0 | 0.0 | 0.00 | 0.00 | 0.00 | 93 | 1021.8 | |
| 20260508010532 | 35 | 0.0 | 0.0 | 0.00 | 0.00 | 0.00 | 93 | 1021.7 | |
| 20260508010047 | 35 | 0.0 | 0.0 | 0.00 | 0.00 | 0.00 | 93 | 1021.8 | |
| 20260508005537 | 35 | 0.0 | 0.0 | 0.00 | 0.00 | 0.00 | 92 | 1021.5 | |
| 20260508005035 | 36 | 0.0 | 0.0 | 0.00 | 0.00 | 0.00 | 92 | 1021.6 | |
| 20260508004537 | 36 | 0.0 | 0.0 | 0.00 | 0.00 | 0.00 | 92 | 1021.6 | |
| 20260508004033 | 37 | 0.0 | 0.0 | 0.00 | 0.00 | 0.00 | 93 | 1021.6 | |
| 20260508003532 | 37 | 0.0 | 0.0 | 0.00 | 0.00 | 0.00 | 93 | 1021.6 | |
| 20260508003043 | 37 | 0.0 | 0.0 | 0.00 | 0.00 | 0.00 | 93 | 1021.6 | |
| 20260508002538 | 37 | 0.0 | 0.0 | 0.00 | 0.00 | 0.00 | 93 | 1021.5 | |
| 20260508002037 | 36 | 0.0 | 0.0 | 0.00 | 0.00 | 0.00 | 93 | 1021.5 | |
| 20260508001600 | 36 | 0.0 | 0.0 | 0.00 | 0.00 | 0.00 | 93 | 1021.4 | |
| 20260508001036 | 36 | 0.0 | 0.0 | 0.00 | 0.00 | 0.00 | 92 | 1021.4 | |
| 20260508000537 | 36 | 0.0 | 0.0 | 0.00 | 0.00 | 0.00 | 93 | 1021.6 | |
| 20260508000051 | 36 | 0.0 | 0.0 | 0.00 | 0.00 | 0.00 | 92 | 1021.5 | |
| 20260507235537 | 36 | 0.0 | 0.0 | 0.00 | 0.00 | 0.00 | 92 | 1021.4 | |
| 20260507235035 | 36 | 0.0 | 0.0 | 0.00 | 0.00 | 0.00 | 92 | 1021.5 | |
| 20260507234600 | 36 | 0.0 | 0.0 | 0.00 | 0.00 | 0.00 | 92 | 1021.5 | |
| 20260507234036 | 36 | 0.0 | 0.0 | 0.00 | 0.00 | 0.00 | 91 | 1021.4 | |
| 20260507233537 | 36 | 0.0 | 0.0 | 0.00 | 0.00 | 0.00 | 91 | 1021.4 | |
| 20260507233101 | 36 | 0.0 | 0.0 | 0.00 | 0.00 | 0.00 | 91 | 1021.4 | |
| 20260507232536 | 36 | 0.0 | 0.0 | 0.00 | 0.00 | 0.00 | 91 | 1021.3 | |
| 20260507232035 | 36 | 0.0 | 0.0 | 0.00 | 0.00 | 0.00 | 91 | 1021.3 | |
| 20260507231547 | 36 | 0.0 | 0.0 | 0.00 | 0.00 | 0.00 | 91 | 1021.2 | |
| 20260507231033 | 36 | 0.0 | 0.0 | 0.00 | 0.00 | 0.00 | 90 | 1021.3 | |
| 20260507230539 | 36 | 0.0 | 0.0 | 0.00 | 0.00 | 0.00 | 90 | 1021.3 | |
| 20260507230052 | 37 | 0.0 | 0.0 | 0.00 | 0.00 | 0.00 | 90 | 1021.1 | |
| 20260507225537 | 36 | 0.0 | 0.0 | 0.00 | 0.00 | 0.00 | 90 | 1021.3 | |
| 20260507225037 | 37 | 0.0 | 0.0 | 0.00 | 0.00 | 0.00 | 90 | 1021.1 | |
| 20260507224556 | 37 | 0.0 | 0.0 | 0.00 | 0.00 | 0.00 | 89 | 1021.1 | |
| 20260507224039 | 37 | 0.0 | 0.0 | 0.00 | 0.00 | 0.00 | 89 | 1021.0 | |
| 20260507223539 | 37 | 0.0 | 0.0 | 0.00 | 0.00 | 0.00 | 89 | 1021.0 | |
| 20260507223048 | 37 | 0.0 | 0.0 | 0.00 | 0.00 | 0.00 | 89 | 1021.1 | |
| 20260507222535 | 38 | 0.0 | 0.0 | 0.00 | 0.00 | 0.00 | 88 | 1020.9 | |
| 20260507222033 | 38 | 0.0 | 0.0 | 0.00 | 0.00 | 0.00 | 88 | 1020.9 | |
| 20260507221544 | 38 | 0.0 | 0.0 | 0.00 | 0.00 | 0.00 | 87 | 1021.0 | |
| 20260507221038 | 38 | 0.0 | 0.0 | 0.00 | 0.00 | 0.00 | 87 | 1020.8 | |
| 20260507220534 | 39 | 0.0 | 0.0 | 0.00 | 0.00 | 0.00 | 87 | 1020.9 | |
| 20260507220051 | 39 | 0.0 | 0.0 | 0.00 | 0.00 | 0.00 | 86 | 1020.8 | |
| 20260507215539 | 39 | 0.0 | 0.0 | 0.00 | 0.00 | 0.00 | 86 | 1020.8 | |
| 20260507215035 | 40 | 0.0 | 0.0 | 0.00 | 0.00 | 0.00 | 86 | 1020.8 | |
| 20260507214601 | 40 | 0.0 | 0.0 | 0.00 | 0.00 | 0.00 | 85 | 1020.7 | |
| 20260507214036 | 41 | 0.0 | 0.0 | 0.00 | 0.00 | 0.00 | 86 | 1020.8 | |
| 20260507213538 | 41 | 0.0 | 0.0 | 0.00 | 0.00 | 0.00 | 86 | 1020.8 | |
| 20260507213100 | 41 | 0.0 | 0.0 | 0.00 | 0.00 | 0.00 | 85 | 1020.9 | |
| 20260507212538 | 40 | 0.0 | 0.0 | 0.00 | 0.00 | 0.00 | 84 | 1020.9 | |
| 20260507212036 | 41 | 0.0 | 0.0 | 0.00 | 0.00 | 0.00 | 82 | 1020.8 | |
| 20260507211547 | 41 | 0.0 | 0.0 | 0.00 | 0.00 | 0.00 | 81 | 1020.8 | |
| 20260507211035 | 42 | 0.0 | 0.0 | 0.00 | 0.00 | 0.00 | 81 | 1020.8 | |
| 20260507210535 | 42 | 0.0 | 0.0 | 0.00 | 0.00 | 0.00 | 80 | 1020.7 | |
| 20260507210046 | 43 | 0.0 | 0.0 | 0.00 | 0.00 | 0.00 | 80 | 1020.5 | |
| 20260507205534 | 43 | 0.0 | 0.0 | 0.00 | 0.00 | 0.00 | 80 | 1020.6 | |
| 20260507205033 | 43 | 0.0 | 0.0 | 0.00 | 0.00 | 0.00 | 79 | 1020.4 | |
| 20260507204547 | 43 | 0.0 | 0.0 | 0.00 | 0.00 | 0.00 | 78 | 1020.4 | |
| 20260507204035 | 44 | 0.0 | 0.0 | 0.00 | 0.00 | 0.00 | 78 | 1020.5 | |
| 20260507203534 | 44 | 0.0 | 0.0 | 0.00 | 0.00 | 0.00 | 78 | 1020.4 | |
| 20260507203046 | 45 | 0.0 | 0.0 | 0.00 | 0.00 | 0.00 | 77 | 1020.4 | |
| 20260507202533 | 45 | 0.0 | 0.0 | 0.00 | 0.00 | 0.00 | 77 | 1020.2 | |
| 20260507202034 | 45 | 0.0 | 0.0 | 0.00 | 0.00 | 0.00 | 77 | 1020.2 | |
| 20260507201540 | 45 | 0.0 | 0.0 | 0.00 | 0.00 | 0.00 | 77 | 1020.2 | |
| 20260507201035 | 45 | 0.0 | 0.0 | 0.00 | 0.00 | 0.00 | 76 | 1020.1 | |
| 20260507200533 | 46 | 0.0 | 0.0 | 0.00 | 0.00 | 0.00 | 76 | 1020.0 | |
| 20260507200048 | 46 | 0.0 | 0.0 | 0.00 | 0.00 | 0.00 | 76 | 1019.8 | |
| 20260507195534 | 46 | 0.0 | 0.0 | 0.00 | 0.00 | 0.00 | 75 | 1019.9 | |
| 20260507195033 | 46 | 0.0 | 0.0 | 0.00 | 0.00 | 0.00 | 75 | 1019.8 | |
| 20260507194614 | 47 | 0.0 | 0.0 | 0.00 | 0.00 | 0.00 | 74 | 1019.9 | |
| 20260507194034 | 47 | 0.0 | 0.0 | 0.00 | 0.00 | 0.00 | 74 | 1019.7 | |
| 20260507193534 | 47 | 0.0 | 0.0 | 0.00 | 0.00 | 0.00 | 73 | 1019.8 | |
| 20260507193044 | 47 | 0.0 | 0.0 | 0.00 | 0.00 | 0.00 | 72 | 1019.7 | |
| 20260507192533 | 47 | 0.0 | 0.0 | 0.00 | 0.00 | 0.00 | 72 | 1019.6 |